Weather History for Guatemala Aeropuertola Aurora, Guatemala

Change the Weather History Date:

Monday, January 13, 2014

  Actual Average Record
Temperature  
Mean Temperature 66 °F -  
Max Temperature 75 °F 73 °F - ()
Min Temperature 57 °F 54 °F - ()
Cooling Degree Days 1    
Growing Degree Days 16 (Base 50)    
Moisture  
Dew Point 57 °F    
Average Humidity 76    
Maximum Humidity 94    
Minimum Humidity 43    
Precipitation  
Precipitation 0.00 in - - ()
Sea Level Pressure  
Sea Level Pressure 30.26 in    
Wind  
Wind Speed 9 mph ()    
Max Wind Speed 14 mph    
Max Gust Speed -    
Visibility 5.5 miles    
Events      
T = Trace of Precipitation, MM = Missing Value Source: Averaged Metar Reports

Daily Weather History Graph

Daily Weather History Graph

Search for Another Location

Airport:

Trip Planner

Search our weather history database for the weather conditions in past years. The results will help you decide how hot, cold, wet, or windy it might be!

Date:

Astronomy

Jan. 13, 2014 Rise Set
Actual Time 6:30 AM CST 5:51 PM CST
Civil Twilight 6:07 AM CST 6:14 PM CST
Nautical Twilight 5:41 AM CST 6:40 PM CST
Astronomical Twilight 5:15 AM CST 7:06 PM CST
Moon 4:03 PM CST (1/13) 4:22 AM CST (1/13)
Length of Visible Light 12h 06m
Length of Day
11h 20m
Waxing Gibbous, 95% of the Moon is Illuminated
Jan 13
Waxing Gibbous
Jan 15
Full
Jan 23
Last Quarter
Jan 30
New
Feb 6
First Quarter

Hourly Weather History & Observations

Time (CST) Temp. Dew Point Humidity Pressure Visibility Wind Dir Wind Speed Gust Speed Precip Events Conditions
12:00 AM 59.0 °F 53.6 °F 82% 30.30 in 6.2 mi NNE 13.8 mph - N/A   Scattered Clouds
1:00 AM 59.0 °F 53.6 °F 82% 30.30 in 6.2 mi NNE 9.2 mph - N/A   Mostly Cloudy
2:00 AM 59.0 °F 55.4 °F 88% 30.30 in 6.2 mi North 11.5 mph - N/A   Mostly Cloudy
3:00 AM 60.8 °F 57.2 °F 88% 30.27 in 6.2 mi North 11.5 mph - N/A   Mostly Cloudy
4:00 AM 60.8 °F 57.2 °F 88% 30.27 in 6.2 mi North 11.5 mph - N/A   Mostly Cloudy
5:00 AM 59.0 °F 57.2 °F 94% 30.27 in 6.2 mi North 11.5 mph - N/A   Mostly Cloudy
6:00 AM 59 °F 57 °F 90% 29.99 in 25 mi North 9.2 mph - -   Partly Cloudy
6:00 AM 59.0 °F 55.4 °F 88% 30.27 in 6.2 mi North 9.2 mph - N/A   Scattered Clouds
7:00 AM 57.2 °F 55.4 °F 94% 30.30 in 6.2 mi NNE 9.2 mph - N/A   Scattered Clouds
8:00 AM 60.8 °F 57.2 °F 88% 30.33 in 6.2 mi NNE 11.5 mph - N/A   Scattered Clouds
9:00 AM 64.4 °F 55.4 °F 73% 30.36 in 6.2 mi North 11.5 mph - N/A   Scattered Clouds
10:00 AM 68.0 °F 55.4 °F 64% 30.33 in 6.2 mi North 11.5 mph - N/A   Scattered Clouds
11:00 AM 69.8 °F 55.4 °F 60% 30.33 in 6.2 mi North 6.9 mph - N/A   Partly Cloudy
12:00 PM 72 °F 54 °F 43% 29.97 in 25 mi North 11.5 mph - -   Scattered Clouds
12:00 PM 71.6 °F 53.6 °F 53% 30.27 in 6.2 mi North 11.5 mph - N/A   Partly Cloudy
1:00 PM 75.2 °F 55.4 °F 50% 30.24 in 6.2 mi East 6.9 mph - N/A   Partly Cloudy
2:00 PM 75.2 °F 57.2 °F 53% 30.21 in 6.2 mi NE 6.9 mph - N/A   Scattered Clouds
3:00 PM 75.2 °F 59.0 °F 57% 30.21 in 5.0 mi South 6.9 mph - N/A   Scattered Clouds
4:00 PM 75.2 °F 59.0 °F 57% 30.21 in 5.0 mi South 9.2 mph - N/A   Scattered Clouds
5:00 PM 73.4 °F 60.8 °F 65% 30.21 in 4.3 mi South 6.9 mph - N/A   Scattered Clouds
6:00 PM 69.8 °F 60.8 °F 73% 30.24 in 3.7 mi South 6.9 mph - N/A   Scattered Clouds
7:00 PM 66.2 °F 60.8 °F 83% 30.27 in 3.7 mi South 4.6 mph - N/A   Clear
8:00 PM 64.4 °F 60.8 °F 88% 30.30 in 3.7 mi Calm Calm - N/A   Clear
9:00 PM 62.6 °F 60.8 °F 94% 30.30 in 3.1 mi North 11.5 mph - N/A   Partly Cloudy
10:00 PM 60.8 °F 55.4 °F 82% 30.33 in - North 4.6 mph - N/A   Clear
11:00 PM 59.0 °F 55.4 °F 88% 30.30 in - North 6.9 mph - N/A   Clear